Weather History for Charlotte, NC

Change the Weather History Date:

Friday, May 25, 2012

  Actual Average Record
Temperature  
Mean Temperature 77 °F 70 °F  
Max Temperature 90 °F 81 °F 95 °F (1953)
Min Temperature 63 °F 59 °F 41 °F (2013)
Degree Days  
Heating Degree Days 0 1  
Month to date heating degree days 11 49  
Since 1 July heating degree days 2597 3381  
Cooling Degree Days 12 6  
Month to date cooling degree days 151 87  
Year to date cooling degree days 258 124  
Growing Degree Days 27 (Base 50)    
Moisture  
Dew Point 63 °F    
Average Humidity 64    
Maximum Humidity 93    
Minimum Humidity 34    
Precipitation  
Precipitation 0.00 in 0.11 in 2.24 in (1939)
Month to date precipitation 5.89 2.49  
Year to date precipitation 15.03 16.27  
Snow  
Snow 0.00 in 0.00 in 0.00 in ()
Month to date snowfall 0.0 0.0  
Since 1 July snowfall T 4.3  
Snow Depth 0.00 in    
Sea Level Pressure  
Sea Level Pressure 30.08 in    
Wind  
Wind Speed 4 mph (North)    
Max Wind Speed 13 mph    
Max Gust Speed 15 mph    
Visibility 10 miles    
Events      
T = Trace of Precipitation, MM = Missing Value Source: NWS Daily Summary

Daily Weather History Graph

Daily Weather History Graph

Search for Another Location

Airport:

Trip Planner

Search our weather history database for the weather conditions in past years. The results will help you decide how hot, cold, wet, or windy it might be!

Date:

Astronomy

May. 25, 2012 Rise Set
Actual Time 6:13 AM EDT 8:28 PM EDT
Civil Twilight 5:44 AM EDT 8:57 PM EDT
Nautical Twilight 5:08 AM EDT 9:33 PM EDT
Astronomical Twilight 4:30 AM EDT 10:11 PM EDT
Moon 10:08 AM EDT (5/25) No Moon Set
Length of Visible Light 15h 13m
Length of Day
14h 15m
Waxing Crescent, 19% of the Moon is Illuminated
May 25
Waxing Crescent
May 28
First Quarter
Jun 4
Full
Jun 11
Last Quarter
Jun 19
New

Hourly Weather History & Observations

Time (EDT) Temp. Heat Index Dew Point Humidity Pressure Visibility Wind Dir Wind Speed Gust Speed Precip Events Conditions
12:52 AM 72.0 °F - 62.1 °F 71% 30.03 in 10.0 mi SSE 8.1 mph - N/A   Partly Cloudy
1:52 AM 70.0 °F - 63.0 °F 78% 30.04 in 10.0 mi South 4.6 mph - N/A   Partly Cloudy
2:52 AM 68.0 °F - 63.0 °F 84% 30.04 in 10.0 mi SSE 4.6 mph - N/A   Clear
3:52 AM 66.0 °F - 63.0 °F 90% 30.05 in 10.0 mi Calm Calm - N/A   Partly Cloudy
4:52 AM 66.0 °F - 63.0 °F 90% 30.06 in 9.0 mi ENE 3.5 mph - N/A   Partly Cloudy
5:52 AM 64.9 °F - 63.0 °F 93% 30.07 in 10.0 mi North 3.5 mph - N/A   Partly Cloudy
6:52 AM 66.0 °F - 63.0 °F 90% 30.09 in 10.0 mi NNW 3.5 mph - N/A   Partly Cloudy
7:09 AM 66.2 °F - 64.4 °F 94% 30.12 in 6.0 mi Calm Calm - N/A   Scattered Clouds
7:52 AM 71.1 °F - 66.0 °F 84% 30.11 in 8.0 mi North 3.5 mph - N/A   Clear
8:52 AM 75.9 °F - 66.0 °F 71% 30.12 in 10.0 mi NW 5.8 mph - N/A   Clear
9:52 AM 80.1 °F 81.7 °F 64.0 °F 58% 30.12 in 10.0 mi NNW 5.8 mph - N/A   Clear
10:52 AM 82.4 °F 83.4 °F 62.6 °F 51% 30.15 in 10.0 mi NNW 4.6 mph - N/A   Clear
11:52 AM 84.0 °F 85.4 °F 64.0 °F 51% 30.12 in 10.0 mi ENE 3.5 mph - N/A   Clear
12:52 PM 86.0 °F 87.3 °F 64.0 °F 48% 30.11 in 10.0 mi WNW 3.5 mph - N/A   Clear
1:52 PM 87.1 °F 87.8 °F 63.0 °F 44% 30.10 in 10.0 mi North 5.8 mph - N/A   Scattered Clouds
2:52 PM 88.0 °F 88.7 °F 63.0 °F 43% 30.08 in 10.0 mi North 6.9 mph - N/A   Scattered Clouds
3:52 PM 90.0 °F 89.7 °F 60.1 °F 37% 30.07 in 10.0 mi Variable 5.8 mph - N/A   Partly Cloudy
4:52 PM 89.1 °F 88.0 °F 57.9 °F 35% 30.06 in 10.0 mi Variable 5.8 mph - N/A   Partly Cloudy
5:52 PM 89.1 °F 88.2 °F 59.0 °F 36% 30.06 in 10.0 mi Variable 4.6 mph - N/A   Partly Cloudy
6:52 PM 86.0 °F 86.3 °F 62.1 °F 44% 30.06 in 10.0 mi NNE 5.8 mph - N/A   Partly Cloudy
7:52 PM 81.0 °F 82.2 °F 63.0 °F 54% 30.07 in 10.0 mi North 4.6 mph - N/A   Clear
8:52 PM 82.0 °F 82.7 °F 61.0 °F 49% 30.07 in 10.0 mi ENE 4.6 mph - N/A   Clear
9:52 PM 75.9 °F - 63.0 °F 64% 30.08 in 10.0 mi Calm Calm - N/A   Clear
10:52 PM 69.1 °F - 64.0 °F 84% 30.09 in 10.0 mi Calm Calm - N/A   Clear
11:52 PM 68.0 °F - 64.0 °F 87% 30.10 in 10.0 mi Calm Calm - N/A   Scattered Clouds